"Period start","avg(HW err(1)/warn(2) (#))","avg(Visibility (m))","avg(Weather code (#))","avg(Precip intensity (mm/h))","min(HW err(1)/warn(2) (#))","max(HW err(1)/warn(2) (#))","std(HW err(1)/warn(2) (#))","med(HW err(1)/warn(2) (#))","min(Visibility (m))","max(Visibility (m))","std(Visibility (m))","med(Visibility (m))","min(Weather code (#))","max(Weather code (#))","std(Weather code (#))","med(Weather code (#))","min(Precip intensity (mm/h))","max(Precip intensity (mm/h))","std(Precip intensity (mm/h))","med(Precip intensity (mm/h))"
2014-07-22 00:40:00,1,41725,0,0.00,0,2,1,1,34418,50000,4744,40471,0,0,0,0,0.00,0.00,0.00,0.00
2014-07-22 00:50:00,0,49407,0,0.00,0,0,0,0,44640,50000,1598,50000,0,0,0,0,0.00,0.00,0.00,0.00
2014-07-22 01:00:00,0,42750,0,0.00,0,0,0,0,32980,50000,5846,42902,0,0,0,0,0.00,0.00,0.00,0.00
2014-07-22 01:10:00,0,40451,0,0.00,0,0,0,0,30472,50000,5904,40644,0,0,0,0,0.00,0.00,0.00,0.00
2014-07-22 01:20:00,0,44124,0,0.00,0,0,0,0,29441,50000,7351,49206,0,0,0,0,0.00,0.00,0.00,0.00
2014-07-22 01:30:00,0,45656,0,0.00,0,0,0,0,37579,50000,4342,47612,0,0,0,0,0.00,0.00,0.00,0.00
2014-07-22 01:40:00,0,46646,0,0.00,0,0,0,0,31631,50000,5812,50000,0,0,0,0,0.00,0.00,0.00,0.00
2014-07-22 01:50:00,0,46049,0,0.00,0,0,0,0,34767,50000,4879,47589,0,0,0,0,0.00,0.00,0.00,0.00
2014-07-22 02:00:00,0,40022,0,0.00,0,0,0,0,25592,50000,7927,40270,0,0,0,0,0.00,0.00,0.00,0.00
2014-07-22 02:10:00,0,44288,0,0.00,0,0,0,0,35902,50000,3453,44006,0,0,0,0,0.00,0.00,0.00,0.00
2014-07-22 02:20:00,0,46568,0,0.00,0,0,0,0,36845,50000,4370,48687,0,0,0,0,0.00,0.00,0.00,0.00
2014-07-22 02:30:00,0,41021,0,0.00,0,0,0,0,33246,50000,5075,40040,0,0,0,0,0.00,0.00,0.00,0.00
2014-07-22 02:40:00,0,43968,0,0.00,0,0,0,0,28935,50000,7310,47052,0,0,0,0,0.00,0.00,0.00,0.00
2014-07-22 02:50:00,0,42976,0,0.00,0,0,0,0,35602,50000,6110,42620,0,0,0,0,0.00,0.00,0.00,0.00
2014-07-22 03:00:00,0,46863,0,0.00,0,0,0,0,34790,50000,4904,50000,0,0,0,0,0.00,0.00,0.00,0.00
2014-07-22 03:10:00,0,39025,0,0.00,0,0,0,0,31587,47989,5338,38874,0,0,0,0,0.00,0.00,0.00,0.00
2014-07-22 03:20:00,0,42286,0,0.00,0,0,0,0,25976,50000,7861,44474,0,0,0,0,0.00,0.00,0.00,0.00
2014-07-22 03:30:00,0,40526,0,0.00,0,0,0,0,26149,50000,7482,42030,0,0,0,0,0.00,0.00,0.00,0.00
2014-07-22 03:40:00,0,46531,0,0.00,0,0,0,0,41475,50000,2898,46453,0,0,0,0,0.00,0.00,0.00,0.00
2014-07-22 03:50:00,0,43867,0,0.00,0,0,0,0,39417,50000,4200,42612,0,0,0,0,0.00,0.00,0.00,0.00
2014-07-22 04:00:00,0,48602,0,0.00,0,0,0,0,41506,50000,2527,50000,0,0,0,0,0.00,0.00,0.00,0.00
2014-07-22 04:10:00,0,46661,0,0.00,0,0,0,0,40588,50000,3609,47963,0,0,0,0,0.00,0.00,0.00,0.00
2014-07-22 04:20:00,0,48107,0,0.00,0,0,0,0,43001,50000,2438,49284,0,0,0,0,0.00,0.00,0.00,0.00
2014-07-22 04:30:00,0,50000,0,0.00,0,0,0,0,50000,50000,0,50000,0,0,0,0,0.00,0.00,0.00,0.00
2014-07-22 04:40:00,0,46177,0,0.00,0,0,0,0,30934,50000,6547,49798,0,0,0,0,0.00,0.00,0.00,0.00
2014-07-22 04:50:00,0,46370,0,0.00,0,0,0,0,38409,50000,4207,47999,0,0,0,0,0.00,0.00,0.00,0.00
2014-07-22 05:00:00,0,48601,0,0.00,0,0,0,0,41700,50000,2566,50000,0,0,0,0,0.00,0.00,0.00,0.00
2014-07-22 05:10:00,0,46828,0,0.00,0,0,0,0,37075,50000,3901,48218,0,0,0,0,0.00,0.00,0.00,0.00
2014-07-22 05:20:00,0,49634,0,0.00,0,0,0,0,48721,50000,469,50000,0,0,0,0,0.00,0.00,0.00,0.00
2014-07-22 05:30:00,0,46794,0,0.00,0,0,0,0,36522,50000,4716,50000,0,0,0,0,0.00,0.00,0.00,0.00
2014-07-22 05:40:00,0,44127,0,0.00,0,0,0,0,31117,50000,5951,46088,0,0,0,0,0.00,0.00,0.00,0.00
2014-07-22 05:50:00,0,47075,0,0.00,0,0,0,0,35966,50000,3914,48176,0,0,0,0,0.00,0.00,0.00,0.00
2014-07-22 06:00:00,0,48715,0,0.00,0,0,0,0,39940,50000,2980,50000,0,0,0,0,0.00,0.00,0.00,0.00
2014-07-22 06:10:00,0,49517,0,0.00,0,0,0,0,45172,50000,1448,50000,0,0,0,0,0.00,0.00,0.00,0.00
2014-07-22 06:20:00,0,49223,0,0.00,0,0,0,0,46124,50000,1263,50000,0,0,0,0,0.00,0.00,0.00,0.00
2014-07-22 06:30:00,0,48268,0,0.00,0,0,0,0,41083,50000,2846,50000,0,0,0,0,0.00,0.00,0.00,0.00
2014-07-22 06:40:00,0,48398,0,0.00,0,0,0,0,42846,50000,2583,50000,0,0,0,0,0.00,0.00,0.00,0.00
2014-07-22 06:50:00,0,49689,0,0.00,0,0,0,0,46886,50000,934,50000,0,0,0,0,0.00,0.00,0.00,0.00
2014-07-22 07:00:00,0,49465,0,0.00,0,0,0,0,47036,50000,961,50000,0,0,0,0,0.00,0.00,0.00,0.00
2014-07-22 07:10:00,0,48194,0,0.00,0,0,0,0,43642,50000,2138,49260,0,0,0,0,0.00,0.00,0.00,0.00
2014-07-22 07:20:00,0,47281,0,0.00,0,0,0,0,30827,50000,5756,49948,0,0,0,0,0.00,0.00,0.00,0.00
2014-07-22 07:30:00,0,49551,0,0.00,0,0,0,0,46905,50000,975,50000,0,0,0,0,0.00,0.00,0.00,0.00
2014-07-22 07:40:00,0,49064,0,0.00,0,0,0,0,44938,50000,1801,50000,0,0,0,0,0.00,0.00,0.00,0.00
2014-07-22 07:50:00,0,47804,0,0.00,0,0,0,0,40624,50000,2724,48177,0,0,0,0,0.00,0.00,0.00,0.00
2014-07-22 08:00:00,0,48742,0,0.00,0,0,0,0,44686,50000,2007,50000,0,0,0,0,0.00,0.00,0.00,0.00
2014-07-22 08:10:00,0,45194,0,0.00,0,0,0,0,33112,50000,6699,50000,0,0,0,0,0.00,0.00,0.00,0.00
2014-07-22 08:20:00,0,47854,0,0.00,0,0,0,0,40720,50000,3477,50000,0,0,0,0,0.00,0.00,0.00,0.00
2014-07-22 08:30:00,0,48774,0,0.00,0,0,0,0,42394,50000,2297,50000,0,0,0,0,0.00,0.00,0.00,0.00
2014-07-22 08:40:00,0,48248,0,0.00,0,0,0,0,42761,50000,2703,50000,0,0,0,0,0.00,0.00,0.00,0.00
2014-07-22 08:50:00,0,48309,0,0.00,0,0,0,0,41064,50000,3159,49894,0,0,0,0,0.00,0.00,0.00,0.00
2014-07-22 09:00:00,0,48630,0,0.00,0,0,0,0,44368,50000,1810,49396,0,0,0,0,0.00,0.00,0.00,0.00
2014-07-22 09:10:00,0,47993,0,0.00,0,0,0,0,38238,50000,3603,50000,0,0,0,0,0.00,0.00,0.00,0.00
2014-07-22 09:20:00,0,49847,0,0.00,0,0,0,0,49010,50000,300,50000,0,0,0,0,0.00,0.00,0.00,0.00
2014-07-22 09:30:00,0,49433,0,0.00,0,0,0,0,47600,50000,890,50000,0,0,0,0,0.00,0.00,0.00,0.00
2014-07-22 09:40:00,0,47923,0,0.00,0,0,0,0,35460,50000,4337,50000,0,0,0,0,0.00,0.00,0.00,0.00
2014-07-22 09:50:00,0,48206,0,0.00,0,0,0,0,45161,50000,1515,48096,0,0,0,0,0.00,0.00,0.00,0.00
2014-07-22 10:00:00,0,46971,0,0.00,0,0,0,0,41768,50000,2813,46839,0,0,0,0,0.00,0.00,0.00,0.00
2014-07-22 10:10:00,0,49674,0,0.00,0,0,0,0,46735,50000,980,50000,0,0,0,0,0.00,0.00,0.00,0.00
2014-07-22 10:20:00,0,45577,0,0.00,0,0,0,0,36874,50000,5064,47473,0,0,0,0,0.00,0.00,0.00,0.00
2014-07-22 10:30:00,0,45014,0,0.00,0,0,0,0,37504,50000,4567,44734,0,0,0,0,0.00,0.00,0.00,0.00
2014-07-22 10:40:00,0,43284,0,0.00,0,0,0,0,31038,50000,7141,46258,0,0,0,0,0.00,0.00,0.00,0.00
2014-07-22 10:50:00,0,47232,0,0.00,0,0,0,0,39217,50000,2987,48136,0,0,0,0,0.00,0.00,0.00,0.00
2014-07-22 11:00:00,0,44962,0,0.00,0,0,0,0,38872,50000,2825,44820,0,0,0,0,0.00,0.00,0.00,0.00
2014-07-22 11:10:00,0,44435,0,0.00,0,0,0,0,28752,50000,6850,47638,0,0,0,0,0.00,0.00,0.00,0.00
2014-07-22 11:20:00,0,42673,0,0.00,0,0,0,0,30727,50000,5958,44322,0,0,0,0,0.00,0.00,0.00,0.00
2014-07-22 11:30:00,0,44683,0,0.00,0,0,0,0,33959,50000,5215,45642,0,0,0,0,0.00,0.00,0.00,0.00
2014-07-22 11:40:00,0,44805,0,0.00,0,0,0,0,37036,50000,5064,45291,0,0,0,0,0.00,0.00,0.00,0.00
2014-07-22 11:50:00,0,45743,0,0.00,0,0,0,0,38092,50000,4475,47421,0,0,0,0,0.00,0.00,0.00,0.00
2014-07-22 12:00:00,0,49493,0,0.00,0,0,0,0,47378,50000,933,50000,0,0,0,0,0.00,0.00,0.00,0.00
2014-07-22 12:10:00,0,49590,0,0.00,0,0,0,0,46289,50000,1106,50000,0,0,0,0,0.00,0.00,0.00,0.00
2014-07-22 12:20:00,0,49570,0,0.00,0,0,0,0,45705,50000,1288,50000,0,0,0,0,0.00,0.00,0.00,0.00
2014-07-22 12:30:00,0,49899,0,0.00,0,0,0,0,49035,50000,288,50000,0,0,0,0,0.00,0.00,0.00,0.00
2014-07-22 12:40:00,0,49832,0,0.00,0,0,0,0,48316,50000,505,50000,0,0,0,0,0.00,0.00,0.00,0.00
2014-07-22 12:50:00,0,49760,0,0.00,0,0,0,0,48716,50000,481,50000,0,0,0,0,0.00,0.00,0.00,0.00
2014-07-22 13:00:00,0,50000,0,0.00,0,0,0,0,50000,50000,0,50000,0,0,0,0,0.00,0.00,0.00,0.00
2014-07-22 13:10:00,0,50000,0,0.00,0,0,0,0,50000,50000,0,50000,0,0,0,0,0.00,0.00,0.00,0.00
2014-07-22 13:20:00,0,50000,0,0.00,0,0,0,0,50000,50000,0,50000,0,0,0,0,0.00,0.00,0.00,0.00
2014-07-22 13:30:00,0,50000,0,0.00,0,0,0,0,50000,50000,0,50000,0,0,0,0,0.00,0.00,0.00,0.00
2014-07-22 13:40:00,0,50000,0,0.00,0,0,0,0,50000,50000,0,50000,0,0,0,0,0.00,0.00,0.00,0.00
2014-07-22 13:50:00,0,50000,0,0.00,0,0,0,0,50000,50000,0,50000,0,0,0,0,0.00,0.00,0.00,0.00
2014-07-22 14:00:00,0,50000,0,0.00,0,0,0,0,50000,50000,0,50000,0,0,0,0,0.00,0.00,0.00,0.00
2014-07-22 14:10:00,0,50000,0,0.00,0,0,0,0,50000,50000,0,50000,0,0,0,0,0.00,0.00,0.00,0.00
2014-07-22 14:20:00,0,50000,0,0.00,0,0,0,0,50000,50000,0,50000,0,0,0,0,0.00,0.00,0.00,0.00
2014-07-22 14:30:00,0,50000,0,0.00,0,0,0,0,50000,50000,0,50000,0,0,0,0,0.00,0.00,0.00,0.00
2014-07-22 14:40:00,0,50000,0,0.00,0,0,0,0,50000,50000,0,50000,0,0,0,0,0.00,0.00,0.00,0.00
2014-07-22 14:50:00,0,50000,0,0.00,0,0,0,0,50000,50000,0,50000,0,0,0,0,0.00,0.00,0.00,0.00
"Period start","avg(HW err(1)/warn(2) (#))","avg(Visibility (m))","avg(Weather code (#))","avg(Precip intensity (mm/h))","min(HW err(1)/warn(2) (#))","max(HW err(1)/warn(2) (#))","std(HW err(1)/warn(2) (#))","med(HW err(1)/warn(2) (#))","min(Visibility (m))","max(Visibility (m))","std(Visibility (m))","med(Visibility (m))","min(Weather code (#))","max(Weather code (#))","std(Weather code (#))","med(Weather code (#))","min(Precip intensity (mm/h))","max(Precip intensity (mm/h))","std(Precip intensity (mm/h))","med(Precip intensity (mm/h))"
2014-07-22 17:20:00,1,50000,0,0.00,0,2,1,2,50000,50000,0,50000,0,0,0,0,0.00,0.00,0.00,0.00
2014-07-22 17:30:00,0,50000,0,0.00,0,0,0,0,50000,50000,0,50000,0,0,0,0,0.00,0.00,0.00,0.00
2014-07-22 17:40:00,0,49998,0,0.00,0,0,0,0,49979,50000,6,50000,0,0,0,0,0.00,0.00,0.00,0.00
2014-07-22 17:50:00,0,50000,0,0.00,0,0,0,0,50000,50000,0,50000,0,0,0,0,0.00,0.00,0.00,0.00
2014-07-22 18:00:00,0,50000,0,0.00,0,0,0,0,50000,50000,0,50000,0,0,0,0,0.00,0.00,0.00,0.00
2014-07-22 18:10:00,0,50000,0,0.00,0,0,0,0,50000,50000,0,50000,0,0,0,0,0.00,0.00,0.00,0.00
2014-07-22 18:20:00,0,49913,0,0.00,0,0,0,0,49132,50000,260,50000,0,0,0,0,0.00,0.00,0.00,0.00
2014-07-22 18:30:00,0,49966,0,0.00,0,0,0,0,49656,50000,103,50000,0,0,0,0,0.00,0.00,0.00,0.00
2014-07-22 18:40:00,0,50000,0,0.00,0,0,0,0,50000,50000,0,50000,0,0,0,0,0.00,0.00,0.00,0.00
2014-07-22 18:50:00,0,49999,0,0.00,0,0,0,0,49986,50000,4,50000,0,0,0,0,0.00,0.00,0.00,0.00
2014-07-22 19:00:00,0,49902,0,0.00,0,0,0,0,49287,50000,220,50000,0,0,0,0,0.00,0.00,0.00,0.00
2014-07-22 19:10:00,0,48870,0,0.00,0,0,0,0,40769,50000,2767,50000,0,0,0,0,0.00,0.00,0.00,0.00
2014-07-22 19:20:00,0,49749,0,0.00,0,0,0,0,47489,50000,753,50000,0,0,0,0,0.00,0.00,0.00,0.00
2014-07-22 19:30:00,0,49582,0,0.00,0,0,0,0,46939,50000,942,50000,0,0,0,0,0.00,0.00,0.00,0.00
2014-07-22 19:40:00,0,49471,0,0.00,0,0,0,0,47121,50000,863,50000,0,0,0,0,0.00,0.00,0.00,0.00
2014-07-22 19:50:00,0,49380,0,0.00,0,0,0,0,46414,50000,1074,50000,0,0,0,0,0.00,0.00,0.00,0.00
2014-07-22 20:00:00,0,48084,0,0.00,0,0,0,0,39035,50000,3433,50000,0,0,0,0,0.00,0.00,0.00,0.00
2014-07-22 20:10:00,0,50000,0,0.00,0,0,0,0,50000,50000,0,50000,0,0,0,0,0.00,0.00,0.00,0.00
2014-07-22 20:20:00,0,49082,0,0.00,0,0,0,0,45345,50000,1675,50000,0,0,0,0,0.00,0.00,0.00,0.00
2014-07-22 20:30:00,0,46730,0,0.00,0,0,0,0,38563,50000,3892,48239,0,0,0,0,0.00,0.00,0.00,0.00
2014-07-22 20:40:00,0,49553,0,0.00,0,0,0,0,46895,50000,928,50000,0,0,0,0,0.00,0.00,0.00,0.00
2014-07-22 20:50:00,0,49927,0,0.00,0,0,0,0,49271,50000,219,50000,0,0,0,0,0.00,0.00,0.00,0.00
2014-07-22 21:00:00,0,49430,0,0.00,0,0,0,0,47760,50000,690,49612,0,0,0,0,0.00,0.00,0.00,0.00
2014-07-22 21:10:00,0,49128,0,0.00,0,0,0,0,44712,50000,1597,49868,0,0,0,0,0.00,0.00,0.00,0.00
2014-07-22 21:20:00,0,48569,0,0.00,0,0,0,0,43836,50000,2221,49640,0,0,0,0,0.00,0.00,0.00,0.00
2014-07-22 21:30:00,0,48788,0,0.00,0,0,0,0,42814,50000,2197,50000,0,0,0,0,0.00,0.00,0.00,0.00
2014-07-22 21:40:00,0,48553,0,0.00,0,0,0,0,43574,50000,2113,49900,0,0,0,0,0.00,0.00,0.00,0.00
2014-07-22 21:50:00,0,48757,0,0.00,0,0,0,0,41613,50000,2470,50000,0,0,0,0,0.00,0.00,0.00,0.00
2014-07-22 22:00:00,0,48053,0,0.00,0,0,0,0,40937,50000,2861,49792,0,0,0,0,0.00,0.00,0.00,0.00
2014-07-22 22:10:00,0,47646,0,0.00,0,0,0,0,41598,50000,2832,48989,0,0,0,0,0.00,0.00,0.00,0.00
2014-07-22 22:20:00,0,47857,0,0.00,0,0,0,0,38129,50000,3542,49431,0,0,0,0,0.00,0.00,0.00,0.00
2014-07-22 22:30:00,0,46904,0,0.00,0,0,0,0,37929,50000,4314,49286,0,0,0,0,0.00,0.00,0.00,0.00
2014-07-22 22:40:00,0,47188,0,0.00,0,0,0,0,35705,50000,4440,49083,0,0,0,0,0.00,0.00,0.00,0.00
2014-07-22 22:50:00,0,49541,0,0.00,0,0,0,0,47714,50000,760,50000,0,0,0,0,0.00,0.00,0.00,0.00
2014-07-22 23:00:00,0,44034,0,0.00,0,0,0,0,34630,50000,5046,44095,0,0,0,0,0.00,0.00,0.00,0.00
2014-07-22 23:10:00,0,48715,0,0.00,0,0,0,0,43683,50000,2218,50000,0,0,0,0,0.00,0.00,0.00,0.00
2014-07-22 23:20:00,0,46059,0,0.00,0,0,0,0,41051,50000,3457,46876,0,0,0,0,0.00,0.00,0.00,0.00
2014-07-22 23:30:00,0,45877,0,0.00,0,0,0,0,35862,50000,4807,47889,0,0,0,0,0.00,0.00,0.00,0.00
2014-07-22 23:40:00,0,44758,0,0.00,0,0,0,0,29054,50000,6306,46414,0,0,0,0,0.00,0.00,0.00,0.00
2014-07-22 23:50:00,0,46406,0,0.00,0,0,0,0,41269,50000,3404,46498,0,0,0,0,0.00,0.00,0.00,0.00
